SCP
0 0 0 0 0 0 0 1 1 1 1 1 1 1 2 2 3 3 4 4 4 4 5 5 4 4 3 2 2 2 2 2 2 2 2 2 3 4 4 5 5 5 4 2
0 0 0 0 0 0 0 1 1 1 1 1 1 2 2 3 3 3 4 3 3 3 4 4 4 3 2 2 2 2 2 2 2 2 2 2 2 3 3 4 5 4 4 3
0 0 0 0 0 0 1 1 1 1 1 2 2 2 3 3 2 2 2 2 2 2 2 3 3 3 2 2 2 2 2 1 1 2 1 1 1 1 2 3 3 4 3 3
1 1 0 0 0 1 1 1 1 1 1 2 2 3 3 2 2 2 2 2 2 2 2 2 2 3 2 2 2 2 1 1 1 1 1 1 1 1 1 1 2 2 3 3
1 1 1 1 1 0 1 1 1 1 1 2 3 3 2 2 2 2 2 3 3 3 3 3 3 2 2 2 2 1 1 1 1 1 1 1 1 1 1 1 1 1 1 2
1 1 1 1 1 0 0 0 1 1 2 3 3 3 2 2 2 2 3 3 3 3 3 3 2 2 2 2 2 1 1 1 1 1 1 1 1 1 1 1 1 1 1 1
1 1 1 1 1 1 1 1 1 1 2 3 3 2 2 2 2 2 2 2 2 2 2 2 2 2 2 2 2 1 1 1 1 1 1 1 2 2 2 1 1 1 1 1
1 1 1 1 1 1 1 1 1 2 2 2 2 2 1 1 1 2 1 1 1 1 1 2 2 1 1 1 2 2 1 1 1 2 2 2 2 3 2 2 1 1 1 1
1 1 1 1 1 1 1 1 1 2 2 2 2 2 1 1 1 1 1 1 1 1 1 2 2 1 1 1 2 2 1 1 1 2 2 2 3 2 2 2 1 1 1 1
1 1 1 1 1 1 0 0 1 1 2 2 2 1 1 1 1 1 1 1 1 1 1 1 1 1 1 1 1 2 2 1 1 1 2 2 2 2 2 1 1 1 1 1
1 0 0 1 1 1 0 0 1 1 1 1 1 1 1 1 1 1 1 1 1 1 1 1 1 1 1 1 1 2 2 1 1 1 1 1 2 1 1 1 1 0 0 0
0 0 0 0 0 0 0 0 0 1 1 1 1 1 0 0 1 1 1 1 1 1 1 1 1 1 1 1 1 2 2 1 1 1 1 1 1 1 1 0 0 0 0 0
1 0 0 0 0 0 0 0 0 0 1 1 1 0 0 0 1 1 1 1 1 1 1 1 1 0 0 1 1 2 2 2 1 1 1 1 1 1 0 0 0 0 0 0
1 1 0 0 0 0 0 0 0 0 1 1 0 0 0 0 1 1 1 1 1 1 1 1 0 0 0 0 1 1 2 2 1 1 1 0 0 0 0 0 0 0 0 0
0 0 0 0 0 0 0 0 0 0 0 0 0 0 0 1 1 1 1 1 1 1 1 0 0 0 0 0 1 1 2 2 1 1 1 0 0 0 0 0 0 0 0 0
0 0 0 0 0 0 0 0 0 0 0 0 0 0 1 1 1 1 1 1 1 1 1 1 0 0 0 0 0 1 2 1 1 0 0 0 0 0 0 0 0 0 0 0
0 0 0 0 0 0 0 0 0 0 0 0 1 1 1 1 1 1 1 1 0 1 1 1 0 0 0 0 0 1 1 1 0 0 0 0 0 0 0 0 0 0 0 0
0 0 0 0 0 0 0 0 0 0 0 0 1 1 1 1 1 1 1 1 1 0 0 0 0 0 0 0 0 1 1 1 0 0 0 0 0 0 0 0 0 0 0 0
0 0 0 0 0 0 0 0 0 0 0 0 1 1 1 1 2 2 1 1 1 0 0 0 0 0 0 0 0 0 1 1 0 0 0 0 0 0 0 0 0 0 0 0
0 0 0 0 0 0 0 1 0 0 1 1 1 1 1 1 2 2 1 1 1 0 0 0 0 0 0 0 0 0 0 1 0 0 0 0 0 0 0 0 0 0 0 0
0 0 0 1 1 0 0 1 1 1 1 1 1 1 1 2 2 2 1 1 1 0 0 0 0 0 0 0 0 0 0 0 0 0 0 0 0 0 0 0 0 0 0 0
1 1 1 1 1 1 0 0 0 1 1 1 1 1 1 2 2 2 1 1 1 0 0 0 0 0 0 0 0 0 0 0 1 1 1 1 0 0 0 0 0 0 0 0
1 1 1 1 1 1 0 0 0 1 1 1 1 1 1 1 2 1 1 1 0 0 0 0 0 0 0 0 0 0 0 1 1 1 1 1 1 1 1 1 1 1 1 0
1 1 1 1 1 1 1 1 1 1 1 1 1 1 1 1 1 1 1 0 0 0 0 0 0 0 0 0 0 0 1 1 1 1 1 1 1 1 1 1 1 1 1 1
1 1 1 1 1 1 1 1 1 1 1 1 1 1 1 1 1 1 1 0 0 0 0 0 0 0 0 0 0 0 0 1 1 1 1 1 1 1 1 1 1 1 1 0
1 1 1 1 1 1 1 2 1 1 1 0 0 1 1 1 1 1 1 0 0 0 0 0 0 0 0 0 0 0 0 1 1 1 1 1 1 1 1 0 0 0 0 0
1 1 1 1 1 1 1 1 1 1 1 0 0 0 1 1 1 0 0 0 0 0 0 0 0 0 0 0 0 0 0 0 0 0 1 1 1 1 1 0 0 0 0 0
Wind_Speed
12 14 13 13 12 11 9 8 9 8 7 5 5 5 5 4 4 5 4 3 3 2 1 1 1 1 1 1 1 0 1 1 1 2 2 1 1 1 1 2 2 1 1 2
13 13 12 11 10 9 8 8 8 8 5 5 5 5 4 4 4 4 4 4 4 3 1 0 0 1 1 0 1 1 2 3 2 1 2 2 1 0 0 1 1 1 2 2
10 12 12 8 7 6 6 8 8 7 6 6 6 6 5 4 4 4 4 3 3 3 1 1 1 1 0 1 1 2 2 3 1 1 2 2 1 1 1 1 1 1 2 2
9 10 8 4 7 7 7 7 8 7 6 6 6 5 3 2 3 4 4 2 2 2 1 0 1 1 1 2 2 3 2 2 1 2 2 1 0 1 1 1 1 2 2 2
7 8 8 4 5 7 7 6 7 8 9 9 9 5 3 5 5 5 3 2 1 1 1 0 1 1 1 2 2 3 2 2 2 2 2 1 1 1 1 1 2 3 3 3
8 10 7 5 6 7 7 3 7 9 9 10 9 7 5 6 6 4 3 2 1 1 0 0 0 1 2 2 2 3 2 1 1 2 2 1 1 2 2 2 3 3 3 2
10 9 5 6 9 8 5 5 8 8 8 8 7 7 5 6 5 4 3 2 2 1 0 1 1 1 2 2 3 2 1 1 0 1 2 2 1 2 3 3 2 2 3 3
7 8 4 9 8 6 5 5 6 6 6 7 7 5 5 5 4 3 3 2 2 1 0 0 1 1 2 2 2 1 1 1 1 1 2 1 1 2 2 2 2 2 2 2
4 4 5 6 6 5 4 6 6 5 6 6 6 4 4 3 3 3 2 2 1 0 0 1 1 2 3 3 2 2 1 1 1 1 1 2 2 2 2 2 2 2 1 1
6 7 8 8 8 7 7 8 7 5 5 6 6 5 4 3 2 2 2 2 1 1 1 1 2 3 3 3 2 2 1 1 1 1 2 2 2 2 1 1 1 1 2 2
9 9 10 8 9 10 10 9 9 6 5 6 5 5 4 3 2 2 2 2 2 2 2 3 3 3 3 2 2 1 2 2 2 2 2 2 2 1 1 1 1 1 2 2
8 8 8 10 11 11 11 10 9 8 7 6 5 4 4 3 2 2 2 2 2 2 3 3 3 3 3 2 2 1 1 2 2 2 2 2 2 1 1 1 1 1 1 1
8 10 10 10 11 10 9 9 9 9 7 6 4 4 4 3 3 2 3 3 2 3 4 3 3 3 3 2 2 2 2 2 3 2 2 2 2 2 1 1 2 3 3 3
8 9 10 10 11 10 8 9 9 9 7 4 4 4 3 3 2 3 3 3 2 3 3 3 3 3 3 3 3 2 3 3 3 2 2 2 2 2 2 2 2 1 3 6
7 8 8 10 10 9 8 8 9 8 5 4 3 3 3 3 2 3 3 3 3 3 3 3 3 3 2 3 3 3 3 2 2 2 3 2 2 2 2 1 1 1 1 1
8 8 8 9 10 9 9 9 8 7 6 5 3 4 4 3 3 3 3 3 3 3 3 3 3 3 3 3 3 3 3 4 3 3 3 2 2 2 2 1 1 1 1 1
8 9 8 9 10 10 10 9 8 7 6 5 4 4 3 3 3 3 3 3 3 4 3 3 3 3 3 3 3 3 3 3 4 3 3 2 2 2 2 2 2 2 2 2
8 8 8 10 10 10 10 9 7 7 7 5 4 4 4 4 4 4 4 4 4 4 3 2 3 3 3 3 3 3 3 3 3 3 2 1 2 2 2 2 1 2 1 2
7 8 8 9 9 9 9 9 8 7 6 5 5 5 5 5 5 4 4 4 5 4 3 3 4 4 4 4 4 4 3 3 2 2 2 1 2 2 2 1 1 2 2 3
8 9 9 9 9 9 9 8 7 6 6 5 5 5 5 5 5 5 5 5 4 3 3 4 5 5 4 4 4 4 3 3 3 2 1 1 2 2 1 1 2 2 2 3
9 10 10 9 9 9 8 8 7 6 6 6 5 5 5 5 5 5 5 6 4 4 4 5 4 4 4 3 5 5 4 3 3 2 2 2 2 1 1 1 2 2 2 2
10 10 11 10 9 9 8 7 7 7 5 5 6 6 5 5 6 6 6 5 5 5 5 5 5 4 4 4 5 5 4 3 3 2 2 2 2 1 1 1 2 2 2 2
10 10 10 10 10 9 9 7 7 5 5 6 7 6 6 5 5 6 6 5 5 6 6 5 5 6 5 5 5 5 4 3 3 3 3 3 2 1 0 1 2 2 2 2
10 10 10 9 9 8 7 6 5 4 5 6 6 6 5 5 5 6 5 6 6 7 5 5 8 8 7 6 5 5 4 4 4 3 3 2 1 1 1 2 2 3 3 4
10 10 10 9 9 7 5 5 6 6 5 4 5 5 5 5 5 5 5 6 8 8 6 7 10 10 8 6 6 6 5 3 3 2 1 1 0 1 2 2 3 3 3 3
9 8 8 8 7 6 5 5 5 4 4 4 3 4 4 4 5 4 4 7 9 8 7 6 8 9 8 7 7 6 4 4 3 3 2 1 1 2 3 3 3 3 3 3
9 8 6 7 6 6 5 5 5 4 4 4 4 5 5 5 5 5 6 6 7 8 8 7 7 8 8 7 6 5 4 3 3 2 2 2 2 3 3 4 3 4 4 4
Wind_Direction
299 297 297 299 303 309 315 316 311 317 333 13 17 9 9 8 3 356 353 7 5 3 55 96 139 170 187 193 211 257 281 262 265 277 254 231 241 232 239 274 290 305 319 321
299 301 303 303 310 310 314 318 315 321 343 5 15 12 9 4 352 352 353 3 3 354 5 52 214 240 185 196 270 256 271 277 276 268 276 255 250 222 307 291 316 322 318 323
299 313 309 306 330 335 335 335 340 339 0 8 356 358 9 356 343 346 336 344 351 340 345 341 313 311 235 224 267 273 272 283 296 289 284 277 306 36 322 319 318 299 297 302
292 305 299 324 353 357 346 353 5 9 10 359 347 356 4 15 1 331 318 332 335 334 332 16 5 341 252 235 243 264 266 282 295 304 300 293 294 285 277 293 287 283 277 277
290 291 292 307 6 351 339 347 18 3 357 351 346 334 344 22 2 335 327 345 359 353 345 28 5 321 273 254 238 246 248 261 278 303 313 297 284 285 273 262 270 272 273 272
283 294 301 349 4 352 324 315 12 355 352 347 337 325 342 359 344 338 3 12 357 347 27 192 251 286 278 266 242 248 245 248 283 303 297 278 269 269 269 261 260 264 271 276
269 277 283 9 350 337 322 346 347 344 348 344 337 335 332 340 350 359 3 355 350 346 75 184 208 251 284 278 272 265 252 255 315 299 261 250 253 263 264 258 265 270 279 277
287 280 295 7 350 2 352 334 331 335 341 339 335 343 337 339 350 349 346 348 349 348 6 223 220 237 271 281 276 273 280 278 278 252 265 272 265 272 273 263 263 260 266 278
303 304 332 349 343 344 331 324 325 329 334 332 333 333 334 331 334 339 336 335 330 259 213 266 248 241 263 265 256 253 250 260 245 246 245 250 246 259 263 260 267 288 289 300
296 297 315 323 327 338 335 326 322 324 325 320 317 317 318 312 318 318 313 311 299 249 232 254 254 249 256 249 245 232 210 198 228 249 248 257 262 257 261 282 292 318 335 350
289 295 308 318 329 329 323 320 321 323 317 309 309 309 304 299 305 299 288 286 270 247 238 246 242 246 251 238 212 211 202 209 236 244 238 246 255 289 289 330 298 304 339 348
292 311 310 306 310 312 311 311 314 311 310 307 298 289 287 290 285 276 273 264 250 243 250 244 239 237 224 223 200 176 212 231 246 243 239 234 223 234 256 219 252 274 285 309
288 299 301 300 302 301 303 308 308 304 299 297 292 285 279 275 267 265 276 263 242 243 247 242 231 221 215 209 197 198 231 240 252 252 242 237 238 224 211 223 242 251 251 252
295 296 298 302 303 304 304 304 301 297 294 291 281 276 272 262 253 262 271 268 246 246 244 226 222 221 209 195 197 213 240 242 248 250 263 264 259 250 229 204 190 213 229 234
290 294 295 298 299 301 303 299 299 297 292 284 275 271 268 257 246 254 259 256 251 252 243 222 222 217 202 198 203 221 246 253 247 257 265 251 251 267 281 270 214 170 141 189
293 293 298 301 301 301 301 297 294 293 291 278 269 265 262 251 246 244 241 236 242 248 238 225 221 205 196 194 210 221 231 242 248 264 271 265 276 295 312 328 358 76 91 52
289 292 296 299 299 297 292 288 286 285 286 278 264 257 249 242 239 235 234 234 242 244 232 226 214 199 197 193 215 230 225 209 206 242 268 291 311 315 327 336 356 32 47 53
282 285 288 289 291 293 294 294 289 285 279 268 248 239 241 235 234 232 234 234 237 233 224 218 204 206 206 209 223 240 240 227 202 213 236 273 297 304 312 322 351 19 38 63
291 293 292 292 292 292 293 292 289 281 275 260 237 237 242 235 232 226 224 230 232 228 221 198 185 201 216 215 234 240 244 243 215 204 222 217 266 285 298 314 345 27 44 50
301 301 299 297 293 292 293 291 290 283 274 262 242 233 233 233 231 225 220 230 232 221 198 187 191 207 221 212 235 247 237 247 242 216 215 240 261 274 307 341 26 48 52 51
310 307 305 302 299 291 286 287 287 278 261 249 244 234 229 230 224 221 222 229 221 215 201 190 205 214 217 218 225 244 234 236 235 230 239 249 264 274 325 20 48 52 57 50
315 311 308 304 299 296 290 284 278 268 254 244 245 238 230 229 224 222 229 231 207 189 204 207 202 205 209 235 236 239 238 227 222 226 240 253 257 287 348 61 74 60 59 57
310 309 306 302 298 293 286 278 268 258 246 241 237 230 228 230 223 220 222 217 204 194 211 213 188 174 195 235 243 239 240 232 230 229 233 238 234 212 164 102 96 85 74 65
305 306 303 298 294 286 277 276 270 257 248 245 237 224 219 225 226 223 218 196 189 189 211 188 171 179 204 238 242 242 239 235 236 236 233 231 232 148 109 99 90 82 75 75
302 302 297 291 286 278 269 266 259 250 243 237 231 220 214 218 226 219 199 178 176 188 199 185 184 191 211 235 239 241 236 230 232 247 236 230 273 90 89 89 93 93 88 88
293 291 289 282 279 274 264 257 252 236 235 235 225 222 221 218 221 209 192 184 190 199 200 188 190 199 217 226 232 236 229 210 201 208 220 212 108 96 95 94 92 85 86 81
283 282 279 277 274 270 266 260 255 241 226 219 229 230 222 214 209 206 202 194 193 198 201 196 200 201 210 220 223 221 222 224 210 196 180 141 115 107 105 101 92 88 84 82